Карабулак

Казахстан     44°54′33″N   78°29′20″E
темп.,
°C
ветер,
м/с
пор.,
м/с
влажн.,
%
обл.,
%
осадки,
мм/ч
давл.,
гПа
погр.,
м
25 февраля, чт
чт2500:00−1вюв3488100 2.4 1020149
03:00−4з71195100 3.2 1023767
06:00−7сз2693100 5.9 1028465
09:00−9з6888100 1.3 1033625
12:00−9юз7989100 2.3 1035971
15:00−8ююз71174100 0.2 10361654
18:00−10ю5873100 0.3 1038226
21:00−11ю5968100 0.0 1039149
26 февраля, пт
пт2600:00−12ююв586698 0.0 1040135
03:00−13ююв5866100 0.0 1040132
06:00−13ююв476487 0.0 104189
09:00−13ю35670 0.0 104289
12:00−8юз46600 0.0 10401096
15:00−8з45650 0.0 1039696
18:00−12св12780 0.0 103821
21:00−15юв22732 0.0 103920
27 февраля, сб
сб2700:00−16в126519 0.0 103720
03:00−15в225968 0.0 103521
06:00−13в115784 0.0 103420
09:00−11всв1167100 0.0 103428
12:00−7с2260100 0.0 1033202
15:00−7с2270100 0.0 1033366
18:00−9ссв1183100 0.0 103321
21:00−9вюв1279100 0.0 103521
28 февраля, вс
вс2800:00−9ююв1173100 0.0 103421
03:00−9ююв226874 0.0 103424
06:00−8ююв226444 0.0 103323
09:00−6ююв22670 0.0 103228
12:00−2с22700 0.0 1029137
15:00−1с23780 0.0 1027180
18:00−4св22740 0.0 102621
21:00−5вюв22632 0.0 102623
1 марта, пн
пн100:00−6юв11591 0.0 102421
03:00−6юв11500 0.0 102321
06:00−6юв22460 0.0 102221
09:00−3юв22530 0.0 102222
12:00+1з01840 0.0 102131
15:00+2сз11805 0.0 102154
18:00−1юв116716 0.0 102122
21:00−1ююв235766 0.0 102322